Retour au catalogue

COSMOS 1275 DEB

ActifPO
NORAD 42122·DEBRIS·🇷🇺 Russia

Lancé Jun 4, 1981 depuis Plesetsk Cosmodrome

Loading…

Prochains Passages (prochaines 24 heures)

TLE

FraisSource: Space-Track

Époque: Sep 13, 2026, 09:31 UTC

1 42122U 81053QJ  26256.39686381  .00001244  00000-0  10121-2 0  9991
2 42122  82.9351 296.3111 0087301 280.3429  78.7901 13.87462617645485

Suivez COSMOS 1275 DEB en temps réel avec AllMySat

Download on the App Store